EW7469 Weather Reports


Display with metric or nautical units.
time (UTC)temp
F
wind
direction
speed
MPH
gust
MPH
rain 1hr
in
rain 24hr
in
rain mn
in
humidity
%
barometer
mb
20200808025412 79 311 0.0 0.0 0.00 0.00 0.00 84 1019.7
20200808024838 79 311 0.0 0.0 0.00 0.00 0.00 84 1019.7
20200808024343 79 311 0.0 0.0 0.00 0.00 0.00 84 1020.1
20200808023842 79 311 0.0 0.0 0.00 0.00 0.00 84 1020.1
20200808023356 79 311 0.0 0.0 0.00 0.00 0.00 84 1020.1
20200808022840 80 311 0.0 0.0 0.00 0.00 0.00 83 1020.3
20200808022349 80 241 0.0 4.0 0.00 0.00 0.00 82 1020.3
20200808021858 80 241 0.0 4.0 0.00 0.00 0.00 81 1020.3
20200808021345 80 239 1.0 4.0 0.00 0.00 0.00 81 1020.7
20200808020915 80 239 0.0 0.0 0.00 0.00 0.00 81 1020.7
20200808020351 80 239 0.0 6.0 0.00 0.00 0.00 80 1020.7
20200808015855 81 236 3.0 10.0 0.00 0.00 0.00 79 1020.8
20200808015420 81 258 4.0 12.0 0.00 0.00 0.00 79 1020.8
20200808014846 81 229 4.0 12.0 0.00 0.00 0.00 79 1020.8
20200808014355 81 236 4.0 10.0 0.00 0.00 0.00 78 1020.3
20200808013858 81 255 0.0 0.0 0.00 0.00 0.00 77 1020.3
20200808013337 81 48 0.0 0.0 0.00 0.00 0.00 76 1020.3
20200808012850 82 48 0.0 0.0 0.00 0.00 0.00 77 1020.3
20200808012358 82 48 0.0 0.0 0.00 0.00 0.00 76 1020.3
20200808011932 82 48 0.0 0.0 0.00 0.00 0.00 76 1020.3
20200808011338 82 48 0.0 0.0 0.00 0.00 0.00 76 1020.1
20200808010907 82 48 0.0 0.0 0.00 0.00 0.00 76 1020.1
20200808010334 82 48 0.0 0.0 0.00 0.00 0.00 75 1020.1
20200808005933 83 48 0.0 1.0 0.00 0.00 0.00 76 1019.7
20200808005337 83 48 0.0 3.0 0.00 0.00 0.00 76 1019.7
20200808004841 83 45 1.0 3.0 0.00 0.00 0.00 78 1019.7
20200808004348 83 68 0.0 0.0 0.00 0.00 0.00 82 1019.2
20200808003834 83 91 0.0 0.0 0.00 0.00 0.00 82 1019.2
20200808003338 83 91 0.0 0.0 0.00 0.00 0.00 81 1019.2
20200808002846 84 91 0.0 0.0 0.00 0.00 0.00 81 1019.2
20200808002354 84 91 0.0 0.0 0.00 0.00 0.00 81 1019.2
20200808001841 84 91 0.0 0.0 0.00 0.00 0.00 80 1019.2
20200808001345 84 91 0.0 0.0 0.00 0.00 0.00 80 1018.7
20200808000915 84 100 0.0 0.0 0.00 0.00 0.00 79 1018.7
20200808000334 84 92 0.0 0.0 0.00 0.00 0.00 79 1018.7
20200807235921 84 87 0.0 0.0 0.00 0.00 0.00 79 1018.7
20200807235346 84 87 0.0 0.0 0.00 0.00 0.00 78 1018.7
20200807234848 84 94 0.0 0.0 0.00 0.00 0.00 78 1018.7
20200807234339 85 94 0.0 0.0 0.00 0.00 0.00 77 1018.8
20200807233906 85 95 0.0 0.0 0.00 0.00 0.00 77 1018.8
20200807233428 85 75 0.0 0.0 0.00 0.00 0.00 77 1018.8
20200807232849 85 104 0.0 0.0 0.00 0.00 0.00 77 1018.3
20200807232335 85 101 0.0 0.0 0.00 0.00 0.00 76 1018.3
20200807231850 85 98 0.0 0.0 0.00 0.00 0.00 75 1018.3
20200807231359 86 98 0.0 0.0 0.00 0.00 0.00 75 1017.7
20200807230901 86 99 0.0 2.0 0.00 0.00 0.00 74 1017.7
20200807230344 86 105 0.0 2.0 0.00 0.00 0.00 73 1017.7
20200807225904 86 93 0.0 2.0 0.00 0.00 0.00 73 1017.3
20200807225349 86 104 0.0 3.0 0.00 0.00 0.00 73 1017.3
20200807224857 87 17 0.0 4.0 0.00 0.00 0.00 72 1017.3
20200807224338 87 107 0.0 4.0 0.00 0.00 0.00 71 1017.0
20200807223841 87 70 0.0 5.0 0.00 0.00 0.00 71 1017.0
20200807223356 87 86 0.0 5.0 0.00 0.00 0.00 70 1017.0
20200807222855 87 70 0.0 1.0 0.00 0.00 0.00 70 1017.1
20200807222352 88 93 0.0 1.0 0.00 0.00 0.00 70 1017.1
20200807221846 88 106 0.0 0.0 0.00 0.00 0.00 68 1017.1
20200807221403 88 112 0.0 0.0 0.00 0.00 0.00 67 1017.1
20200807220910 88 110 0.0 0.0 0.00 0.00 0.00 68 1017.1
20200807220357 88 100 0.0 0.0 0.00 0.00 0.00 67 1017.1
20200807215834 88 39 0.0 0.0 0.00 0.00 0.00 66 1017.1
20200807215341 88 99 0.0 0.0 0.00 0.00 0.00 67 1017.1
20200807214856 88 110 0.0 0.0 0.00 0.00 0.00 67 1017.1
20200807214436 89 122 0.0 3.0 0.00 0.00 0.00 68 1017.2
20200807214353 89 122 0.0 3.0 0.00 0.00 0.00 68 1017.2
20200807213907 89 123 0.0 3.0 0.00 0.00 0.00 66 1017.2
20200807213334 89 1 0.0 0.0 0.00 0.00 0.00 66 1017.2
20200807212915 89 122 0.0 3.0 0.00 0.00 0.00 66 1017.2
20200807212441 89 76 0.0 3.0 0.00 0.00 0.00 66 1017.2
20200807211834 89 85 0.0 3.0 0.00 0.00 0.00 65 1017.2
20200807211339 89 136 0.0 2.0 0.00 0.00 0.00 65 1017.1
20200807210918 89 76 0.0 0.0 0.00 0.00 0.00 65 1017.1
20200807210338 89 80 0.0 0.0 0.00 0.00 0.00 65 1017.1
20200807205859 90 110 0.0 0.0 0.00 0.00 0.00 64 1017.1
20200807205340 90 113 0.0 0.0 0.00 0.00 0.00 64 1017.1
20200807204920 90 125 0.0 0.0 0.00 0.00 0.00 66 1017.1
20200807204337 90 71 0.0 0.0 0.00 0.00 0.00 64 1017.1
20200807203856 90 78 0.0 0.0 0.00 0.00 0.00 63 1017.1
20200807203336 90 128 0.0 0.0 0.00 0.00 0.00 63 1017.1
20200807202844 90 128 0.0 0.0 0.00 0.00 0.00 64 1017.1
20200807202421 90 44 0.0 1.0 0.00 0.00 0.00 64 1017.1
20200807202338 90 44 0.0 1.0 0.00 0.00 0.00 64 1017.1
20200807201918 90 103 0.0 1.0 0.00 0.00 0.00 61 1017.1
20200807201333 90 104 0.0 0.0 0.00 0.00 0.00 62 1017.1
20200807200852 90 108 0.0 0.0 0.00 0.00 0.00 63 1017.1
20200807200347 90 91 0.0 0.0 0.00 0.00 0.00 63 1017.1
20200807195836 90 98 0.0 0.0 0.00 0.00 0.00 62 1017.2
20200807195411 90 78 0.0 0.0 0.00 0.00 0.00 63 1017.2
20200807194857 90 91 0.0 0.0 0.00 0.00 0.00 64 1017.2
20200807194337 90 91 0.0 0.0 0.00 0.00 0.00 65 1017.5
20200807193845 90 89 0.0 0.0 0.00 0.00 0.00 62 1017.5
20200807193344 90 89 0.0 0.0 0.00 0.00 0.00 63 1017.5
20200807192845 90 89 0.0 0.0 0.00 0.00 0.00 62 1017.7
20200807192334 90 80 0.0 1.0 0.00 0.00 0.00 62 1017.7
20200807191858 90 88 0.0 1.0 0.00 0.00 0.00 63 1017.7
20200807191436 90 66 0.0 0.0 0.00 0.00 0.00 63 1017.9
20200807191354 90 66 0.0 0.0 0.00 0.00 0.00 63 1017.9
20200807190941 90 54 0.0 0.0 0.00 0.00 0.00 64 1017.9
20200807190419 90 54 0.0 0.0 0.00 0.00 0.00 64 1017.9
20200807185858 90 55 0.0 0.0 0.00 0.00 0.00 63 1018.1
20200807185358 90 105 0.0 0.0 0.00 0.00 0.00 63 1018.1
20200807184844 90 114 0.0 1.0 0.00 0.00 0.00 61 1018.1
20200807184338 90 56 0.0 4.0 0.00 0.00 0.00 64 1018.3
20200807183845 90 64 1.0 4.0 0.00 0.00 0.00 63 1018.3
20200807183357 90 87 0.0 0.0 0.00 0.00 0.00 64 1018.3
20200807182837 90 88 0.0 0.0 0.00 0.00 0.00 61 1018.5
20200807182339 90 87 0.0 0.0 0.00 0.00 0.00 64 1018.5
20200807181859 90 55 0.0 0.0 0.00 0.00 0.00 63 1018.5
20200807181354 90 55 0.0 0.0 0.00 0.00 0.00 64 1018.3
20200807180923 89 56 0.0 0.0 0.00 0.00 0.00 64 1018.3
20200807180405 90 117 0.0 0.0 0.00 0.00 0.00 63 1018.3
20200807175859 90 117 0.0 0.0 0.00 0.00 0.00 63 1018.4
20200807175345 89 128 0.0 0.0 0.00 0.00 0.00 64 1018.4
20200807174854 89 41 0.0 3.0 0.00 0.00 0.00 64 1018.4
20200807174340 89 41 0.0 3.0 0.00 0.00 0.00 66 1018.6
20200807173935 89 115 0.0 0.0 0.00 0.00 0.00 64 1018.6
20200807173852 89 115 0.0 0.0 0.00 0.00 0.00 64 1018.6
20200807173338 89 219 0.0 0.0 0.00 0.00 0.00 69 1018.6
20200807172853 89 338 0.0 1.0 0.00 0.00 0.00 64 1018.5
20200807172409 89 330 0.0 1.0 0.00 0.00 0.00 64 1018.5
20200807171834 89 39 0.0 0.0 0.00 0.00 0.00 66 1018.5
20200807171336 88 39 0.0 0.0 0.00 0.00 0.00 68 1018.5
20200807170853 88 79 0.0 0.0 0.00 0.00 0.00 66 1018.5
20200807170348 88 77 0.0 0.0 0.00 0.00 0.00 67 1018.5
20200807165854 88 74 0.0 0.0 0.00 0.00 0.00 68 1018.5
20200807165409 88 65 0.0 0.0 0.00 0.00 0.00 69 1018.5
20200807164906 88 46 0.0 0.0 0.00 0.00 0.00 70 1018.5
20200807164353 88 120 0.0 0.0 0.00 0.00 0.00 71 1018.6
20200807163841 88 94 0.0 0.0 0.00 0.00 0.00 70 1018.6
20200807163339 88 47 0.0 0.0 0.00 0.00 0.00 72 1018.6
20200807162841 88 189 0.0 0.0 0.00 0.00 0.00 70 1018.7
20200807162356 87 200 0.0 0.0 0.00 0.00 0.00 72 1018.7
20200807161842 87 200 0.0 0.0 0.00 0.00 0.00 73 1018.7
20200807161341 87 203 0.0 0.0 0.00 0.00 0.00 72 1018.7
20200807160908 87 214 0.0 0.0 0.00 0.00 0.00 71 1018.7
20200807160354 87 214 0.0 0.0 0.00 0.00 0.00 75 1018.7
20200807155834 86 216 0.0 0.0 0.00 0.00 0.00 74 1018.8
20200807155348 86 218 0.0 0.0 0.00 0.00 0.00 74 1018.8
20200807154906 86 218 0.0 0.0 0.00 0.00 0.00 74 1018.8
20200807154400 86 219 0.0 0.0 0.00 0.00 0.00 78 1018.9
20200807153920 85 295 0.0 0.0 0.00 0.00 0.00 76 1018.9
20200807153347 85 295 0.0 0.0 0.00 0.00 0.00 75 1018.9
20200807152926 85 301 0.0 0.0 0.00 0.00 0.00 74 1019.1
20200807152346 84 302 0.0 0.0 0.00 0.00 0.00 74 1019.1
20200807151833 84 302 0.0 0.0 0.00 0.00 0.00 77 1019.1
20200807151420 84 302 0.0 0.0 0.00 0.00 0.00 77 1018.8
20200807150901 83 302 0.0 3.0 0.00 0.00 0.00 77 1018.8
20200807150400 83 302 0.0 3.0 0.00 0.00 0.00 78 1018.8
20200807145843 83 298 0.0 3.0 0.00 0.00 0.00 79 1018.7
20200807145400 83 293 0.0 0.0 0.00 0.00 0.00 81 1018.7
20200807144858 82 281 0.0 0.0 0.00 0.00 0.00 81 1018.7
20200807144415 82 289 0.0 0.0 0.00 0.00 0.00 83 1018.7
20200807143908 82 289 0.0 0.0 0.00 0.00 0.00 85 1018.7
20200807143334 82 258 0.0 0.0 0.00 0.00 0.00 85 1018.7
20200807142932 81 259 0.0 0.0 0.00 0.00 0.00 87 1018.7
20200807142338 81 282 0.0 0.0 0.00 0.00 0.00 88 1018.7
20200807141913 80 282 0.0 0.0 0.00 0.00 0.00 92 1018.7
20200807141414 80 162 0.0 0.0 0.00 0.00 0.00 94 1018.7
20200807140902 80 162 0.0 0.0 0.00 0.00 0.00 95 1018.7
20200807140346 79 162 0.0 0.0 0.00 0.00 0.00 96 1018.7
20200807135834 79 162 0.0 0.0 0.00 0.00 0.00 97 1018.6
20200807135339 79 162 0.0 0.0 0.00 0.00 0.00 98 1018.6
20200807134845 79 162 0.0 0.0 0.00 0.00 0.00 99 1018.6
20200807134344 79 162 0.0 0.0 0.00 0.00 0.00 100 1018.4
20200807133833 78 162 0.0 0.0 0.00 0.00 0.00 100 1018.4
20200807133340 78 162 0.0 0.0 0.00 0.00 0.00 100 1018.4
20200807132920 78 161 0.0 0.0 0.00 0.00 0.00 100 1018.6
20200807132338 78 162 0.0 0.0 0.00 0.00 0.00 100 1018.6
20200807131846 78 162 0.0 0.0 0.00 0.00 0.00 100 1018.6
20200807131401 78 162 0.0 0.0 0.00 0.00 0.00 100 1018.5
20200807130918 78 161 0.0 0.0 0.00 0.00 0.00 100 1018.5
20200807130344 78 161 0.0 0.0 0.00 0.00 0.00 100 1018.5
20200807125902 78 162 0.0 0.0 0.00 0.00 0.00 100 1018.4
20200807125401 78 162 0.0 0.0 0.00 0.00 0.00 100 1018.4
20200807124845 78 161 0.0 0.0 0.00 0.00 0.00 100 1018.4
20200807124333 77 161 0.0 0.0 0.00 0.00 0.00 100 1018.3
20200807123859 77 161 0.0 0.0 0.00 0.00 0.00 100 1018.3
20200807123345 77 161 0.0 0.0 0.00 0.00 0.00 100 1018.3
20200807122848 77 162 0.0 0.0 0.00 0.00 0.00 100 1018.2
20200807122333 77 162 0.0 0.0 0.00 0.00 0.00 100 1018.2
20200807121920 77 162 0.0 0.0 0.00 0.00 0.00 100 1018.2
20200807121417 77 161 0.0 0.0 0.00 0.00 0.00 100 1018.2
20200807120900 76 161 0.0 0.0 0.00 0.00 0.00 100 1018.2
20200807120355 76 161 0.0 0.0 0.00 0.00 0.00 100 1018.2
20200807115834 76 161 0.0 0.0 0.00 0.00 0.00 100 1017.9
20200807115421 76 161 0.0 0.0 0.00 0.00 0.00 100 1017.9
20200807114847 76 161 0.0 0.0 0.00 0.00 0.00 100 1017.9
20200807114404 75 161 0.0 0.0 0.00 0.00 0.00 100 1017.7
20200807113858 75 161 0.0 0.0 0.00 0.00 0.00 100 1017.7
20200807113336 75 161 0.0 0.0 0.00 0.00 0.00 100 1017.7
20200807112844 75 162 0.0 0.0 0.00 0.00 0.00 100 1017.5
20200807112401 75 161 0.0 0.0 0.00 0.00 0.00 100 1017.5
20200807111900 75 161 0.0 0.0 0.00 0.00 0.00 100 1017.5
20200807111348 75 161 0.0 0.0 0.00 0.00 0.00 100 1017.1
20200807110906 75 161 0.0 0.0 0.00 0.00 0.00 100 1017.1
20200807110353 75 161 0.0 0.0 0.00 0.00 0.00 100 1017.1
20200807105906 75 161 0.0 0.0 0.00 0.00 0.00 100 1017.1
20200807105333 75 161 0.0 0.0 0.00 0.00 0.00 100 1017.1
20200807104846 75 161 0.0 0.0 0.00 0.00 0.00 100 1017.1
20200807104406 75 161 0.0 0.0 0.00 0.00 0.00 100 1017.1
20200807103833 75 161 0.0 0.0 0.00 0.00 0.00 100 1017.1
20200807103341 75 161 0.0 0.0 0.00 0.00 0.00 100 1017.1
20200807102917 75 161 0.0 0.0 0.00 0.00 0.00 100 1017.0
20200807102344 75 161 0.0 0.0 0.00 0.00 0.00 100 1017.0
20200807101902 76 161 0.0 0.0 0.00 0.00 0.00 100 1017.0
20200807101344 76 161 0.0 0.0 0.00 0.00 0.00 100 1016.7
20200807100923 76 161 0.0 0.0 0.00 0.00 0.00 100 1016.7
20200807100356 76 161 0.0 0.0 0.00 0.00 0.00 100 1016.7
20200807095835 76 161 0.0 0.0 0.00 0.00 0.00 100 1016.7
20200807095341 76 161 0.0 0.0 0.00 0.00 0.00 100 1016.7
20200807094848 76 161 0.0 0.0 0.00 0.00 0.00 100 1016.7
20200807094335 76 161 0.0 0.0 0.00 0.00 0.00 100 1016.5
20200807093850 76 161 0.0 0.0 0.00 0.00 0.00 100 1016.5
20200807093338 76 161 0.0 0.0 0.00 0.00 0.00 100 1016.5
20200807092844 76 161 0.0 0.0 0.00 0.00 0.00 100 1016.5
20200807092339 76 161 0.0 0.0 0.00 0.00 0.00 100 1016.5
20200807091855 76 161 0.0 0.0 0.00 0.00 0.00 100 1016.5
20200807091343 76 161 0.0 0.0 0.00 0.00 0.00 100 1016.5
20200807090930 76 161 0.0 0.0 0.00 0.00 0.00 100 1016.5
20200807090352 76 161 0.0 0.0 0.00 0.00 0.00 100 1016.5
20200807085910 76 161 0.0 0.0 0.00 0.00 0.00 99 1016.3
20200807085355 76 161 0.0 0.0 0.00 0.00 0.00 99 1016.3
20200807084843 76 161 0.0 0.0 0.00 0.00 0.00 99 1016.3
20200807084351 76 161 0.0 0.0 0.00 0.00 0.00 99 1016.2
20200807083836 76 161 0.0 0.0 0.00 0.00 0.00 99 1016.2
20200807083437 76 161 0.0 0.0 0.00 0.00 0.00 99 1016.2
20200807082915 76 161 0.0 0.0 0.00 0.00 0.00 99 1016.1
20200807082358 76 161 0.0 0.0 0.00 0.00 0.00 99 1016.1
20200807081849 76 161 0.0 0.0 0.00 0.00 0.00 99 1016.1
20200807081357 76 161 0.0 0.0 0.00 0.00 0.00 99 1016.1
20200807080901 76 161 0.0 0.0 0.00 0.00 0.00 99 1016.1
20200807080400 77 161 0.0 0.0 0.00 0.00 0.00 99 1016.1
20200807075916 77 161 0.0 0.0 0.00 0.00 0.00 98 1016.1
20200807075335 76 161 0.0 0.0 0.00 0.00 0.00 98 1016.1
20200807074900 76 161 0.0 0.0 0.00 0.00 0.00 98 1016.1
20200807074347 77 161 0.0 0.0 0.00 0.00 0.00 98 1016.1
20200807073904 77 161 0.0 0.0 0.00 0.00 0.00 97 1016.1
20200807073357 77 161 0.0 0.0 0.00 0.00 0.00 97 1016.1
20200807072937 77 161 0.0 0.0 0.00 0.00 0.00 97 1016.1
20200807072854 77 161 0.0 0.0 0.00 0.00 0.00 97 1016.1
20200807072340 77 161 0.0 0.0 0.00 0.00 0.00 97 1016.1
20200807071844 77 161 0.0 0.0 0.00 0.00 0.00 97 1016.1
20200807071431 77 161 0.0 0.0 0.00 0.00 0.00 97 1016.1
20200807070916 77 161 0.0 0.0 0.00 0.00 0.00 97 1016.1
20200807070429 77 161 0.0 0.0 0.00 0.00 0.00 97 1016.1
20200807065833 77 161 0.0 0.0 0.00 0.00 0.00 97 1016.3
20200807065405 77 161 0.0 0.0 0.00 0.00 0.00 97 1016.3
20200807064851 77 161 0.0 0.0 0.00 0.00 0.00 97 1016.3
20200807064339 77 161 0.0 0.0 0.00 0.00 0.00 97 1016.5
20200807063843 77 161 0.0 0.0 0.00 0.00 0.00 97 1016.5
20200807063426 77 161 0.0 0.0 0.00 0.00 0.00 96 1016.5
20200807063343 77 161 0.0 0.0 0.00 0.00 0.00 96 1016.5
20200807062908 77 161 0.0 0.0 0.00 0.00 0.00 96 1016.6
20200807062353 77 161 0.0 0.0 0.00 0.00 0.00 96 1016.6
20200807061906 77 161 0.0 0.0 0.00 0.00 0.00 96 1016.6
20200807061334 77 161 0.0 0.0 0.00 0.00 0.00 96 1016.6
20200807060925 77 161 0.0 0.0 0.00 0.00 0.00 96 1016.6
20200807060354 77 161 0.0 0.0 0.00 0.00 0.00 96 1016.6
20200807055840 78 161 0.0 0.0 0.00 0.00 0.00 96 1016.6
20200807055343 78 161 0.0 0.0 0.00 0.00 0.00 97 1016.6
20200807054942 78 162 0.0 0.0 0.00 0.00 0.00 96 1016.6
20200807054347 78 161 0.0 0.0 0.00 0.00 0.00 96 1016.8
20200807053908 78 161 0.0 0.0 0.00 0.00 0.00 96 1016.8
20200807053350 78 161 0.0 0.0 0.00 0.00 0.00 96 1016.8
20200807052836 78 161 0.0 0.0 0.00 0.00 0.00 96 1017.1
20200807052344 78 161 0.0 0.0 0.00 0.00 0.00 96 1017.1
20200807051924 78 161 0.0 0.0 0.00 0.00 0.00 96 1017.1
20200807051344 78 162 0.0 0.0 0.00 0.00 0.00 96 1017.1
20200807050914 78 161 0.0 0.0 0.00 0.00 0.00 96 1017.1
20200807050334 78 161 0.0 0.0 0.00 0.00 0.00 95 1017.1
20200807045920 79 161 0.0 0.0 0.00 0.00 0.00 95 1017.2
20200807045342 79 161 0.0 0.0 0.00 0.00 0.00 95 1017.2
20200807044844 79 161 0.0 0.0 0.00 0.00 0.00 95 1017.2
20200807044349 79 161 0.0 0.0 0.00 0.00 0.00 95 1017.2
20200807043839 79 161 0.0 0.0 0.00 0.00 0.00 95 1017.2
20200807043359 79 161 0.0 0.0 0.00 0.00 0.00 94 1017.2
20200807042851 79 161 0.0 0.0 0.00 0.00 0.00 94 1017.1
20200807042338 79 161 0.0 0.0 0.00 0.00 0.00 94 1017.1
20200807041847 79 161 0.0 0.0 0.00 0.00 0.00 94 1017.1
20200807041356 79 161 0.0 0.0 0.00 0.00 0.00 94 1017.1
20200807040905 79 162 0.0 0.0 0.00 0.00 0.00 94 1017.1
20200807040419 79 161 0.0 0.0 0.00 0.00 0.00 94 1017.1
20200807035845 79 161 0.0 0.0 0.00 0.00 0.00 94 1017.1
20200807035354 79 161 0.0 0.0 0.00 0.00 0.00 94 1017.1
20200807034834 79 162 0.0 0.0 0.00 0.00 0.00 93 1017.1
20200807034338 79 161 0.0 0.0 0.00 0.00 0.00 94 1017.2
20200807033847 79 161 0.0 0.0 0.00 0.00 0.00 94 1017.2
20200807033407 79 161 0.0 0.0 0.00 0.00 0.00 93 1017.2
20200807032854 79 161 0.0 0.0 0.00 0.00 0.00 93 1017.5
20200807032348 79 161 0.0 0.0 0.00 0.00 0.00 93 1017.5
20200807031836 79 161 0.0 0.0 0.00 0.00 0.00 92 1017.5
20200807031351 79 161 0.0 0.0 0.00 0.00 0.00 92 1017.5
20200807030922 79 161 0.0 0.0 0.00 0.00 0.00 92 1017.5
20200807030421 79 161 0.0 0.0 0.00 0.00 0.00 91 1017.5
20200807025835 80 161 0.0 0.0 0.00 0.00 0.00 91 1017.6